Concord, NH

6:39 PM EST on February 12, 2016 (GMT -0500)
Concord Municipal

Weather History for KCON - January, 2014

Change the Weather History Date:

Wednesday, January 15, 2014

  Actual Average Record
Temperature  
Mean Temperature 35 °F 20 °F  
Max Temperature 44 °F 30 °F 63 °F (1932)
Min Temperature 25 °F 10 °F -19 °F (1988)
Degree Days  
Heating Degree Days 30 45  
Month to date heating degree days 659 665  
Since 1 July heating degree days 3454 3411  
Cooling Degree Days 0 0  
Month to date cooling degree days 0 0  
Year to date cooling degree days 0 0  
Moisture  
Dew Point 29 °F    
Average Humidity 79    
Maximum Humidity 100    
Minimum Humidity 58    
Precipitation  
Precipitation T in 0.09 in 1.35 in (1936)
Month to date precipitation 2.83 1.30  
Year to date precipitation 2.83 1.30  
Snow  
Snow 0.00 in 0.60 in 9.10 in (1912)
Month to date snowfall 8.8 8.7  
Since 1 July snowfall 28.9 25.8  
Snow Depth 7.00 in    
Sea Level Pressure  
Sea Level Pressure 29.91 in    
Wind  
Wind Speed 2 mph (SE)    
Max Wind Speed 10 mph    
Max Gust Speed 13 mph    
Visibility 4 miles    
Events Fog    
T = Trace of Precipitation, MM = Missing Value Source: NWS Daily Summary

Daily Weather History Graph

Daily Weather History Graph

Search for Another Location

Airport or City:

Trip Planner

Search our weather history database for the weather conditions in past years. The results will help you decide how hot, cold, wet, or windy it might be!

Date:

Astronomy

Jan. 15, 2014 Rise Set
Actual Time 7:15 AM EST 4:36 PM EST
Civil Twilight 6:43 AM EST 5:07 PM EST
Nautical Twilight 6:08 AM EST 5:42 PM EST
Astronomical Twilight 5:34 AM EST 6:17 PM EST
Moon 4:32 PM EST (1/15) 6:27 AM EST (1/15)
Length of Visible Light 10h 24m
Length of Day
9h 21m
Full, 100% of the Moon is Illuminated
Jan 15
Full
Jan 15
Full
Jan 24
Last Quarter
Jan 30
New
Feb 6
First Quarter

Hourly Weather History & Observations

Time (EST) Temp. Windchill Dew Point Humidity Pressure Visibility Wind Dir Wind Speed Gust Speed Precip Events Conditions
12:51 AM 35.1 °F - 34.0 °F 96% 29.77 in 10.0 mi Calm Calm - 0.00 in   Partly Cloudy
1:51 AM 34.0 °F 28.8 °F 33.1 °F 96% 29.80 in 10.0 mi NNW 5.8 mph - N/A   Mostly Cloudy
2:27 AM 30.9 °F - 30.9 °F 100% 29.81 in 1.8 mi Calm Calm - N/A   Clear
2:48 AM 30.2 °F - 28.4 °F 93% 29.82 in 0.8 mi Calm Calm - N/A   Partly Cloudy
2:51 AM 30.0 °F - 28.9 °F 96% 29.83 in 0.8 mi Calm Calm - N/A   Clear
3:07 AM 30.0 °F - 28.9 °F 96% 29.83 in 1.5 mi Calm Calm - N/A   Scattered Clouds
3:10 AM 30.0 °F - 30.0 °F 100% 29.83 in 3.0 mi Calm Calm - N/A   Mostly Cloudy
3:21 AM 28.9 °F - 28.9 °F 100% 29.84 in 4.0 mi Calm Calm - N/A   Mostly Cloudy
3:27 AM 30.0 °F 26.5 °F 30.0 °F 100% 29.84 in 1.8 mi NE 3.5 mph - N/A   Overcast
3:33 AM 30.0 °F - 30.0 °F 100% 29.84 in 3.0 mi Calm Calm - N/A   Overcast
3:51 AM 30.0 °F - 28.9 °F 96% 29.86 in 2.5 mi Calm Calm - N/A   Mostly Cloudy
3:55 AM 30.0 °F - 30.0 °F 100% 29.84 in 1.2 mi Calm Calm - N/A   Mostly Cloudy
4:02 AM 28.9 °F - 28.9 °F 100% 29.85 in 2.0 mi Calm Calm - N/A   Scattered Clouds
4:10 AM 28.9 °F - 28.9 °F 100% 29.85 in 3.0 mi Calm Calm - N/A   Scattered Clouds
4:40 AM 28.9 °F - 28.9 °F 100% 29.86 in 1.5 mi Calm Calm - N/A   Clear
4:47 AM 28.4 °F - 28.4 °F 100% 29.87 in 1.0 mi Calm Calm - N/A   Clear
4:51 AM 28.0 °F 24.2 °F 28.0 °F 100% 29.88 in 2.5 mi ESE 3.5 mph - N/A   Clear
4:58 AM 28.9 °F - 28.0 °F 96% 29.87 in 8.0 mi Calm Calm - N/A   Clear
5:33 AM 27.0 °F - 27.0 °F 100% 29.89 in 1.8 mi Calm Calm - N/A   Clear
5:41 AM 28.0 °F - 28.0 °F 100% 29.89 in 1.2 mi Calm Calm - N/A   Clear
5:44 AM 28.9 °F - 28.0 °F 96% 29.89 in 2.0 mi Calm Calm - N/A   Clear
5:51 AM 28.9 °F - 28.0 °F 96% 29.91 in 2.5 mi Calm Calm - N/A   Clear
5:58 AM 28.0 °F - 28.0 °F 100% 29.90 in 5.0 mi Calm Calm - N/A   Clear
6:11 AM 27.0 °F - 26.1 °F 96% 29.91 in 2.5 mi Calm Calm - N/A   Clear
6:18 AM 27.0 °F - 26.1 °F 96% 29.91 in 5.0 mi Calm Calm - N/A   Clear
6:51 AM 27.0 °F - 25.0 °F 92% 29.96 in 8.0 mi Calm Calm - N/A   Clear
7:13 AM 28.9 °F - 27.0 °F 92% 29.95 in 2.0 mi Calm Calm - N/A   Clear
7:31 AM 26.1 °F - 26.1 °F 100% 29.96 in 1.2 mi Calm Calm - N/A   Clear
7:46 AM 26.6 °F - 26.6 °F 100% 29.96 in 0.8 mi Calm Calm - N/A   Clear
7:51 AM 26.1 °F - 26.1 °F 100% 29.98 in 1.0 mi Calm Calm - N/A   Clear
7:59 AM 28.0 °F - 27.0 °F 96% 29.97 in 2.0 mi Calm Calm - N/A   Clear
8:21 AM 28.9 °F - 28.9 °F 100% 29.98 in 1.5 mi Calm Calm - N/A   Clear
8:34 AM 30.0 °F - 30.0 °F 100% 29.98 in 2.0 mi Calm Calm - N/A   Clear
8:51 AM 30.9 °F - 30.9 °F 100% 30.00 in 0.8 mi Calm Calm - N/A   Clear
9:16 AM 34.0 °F - 33.1 °F 96% 29.99 in 0.5 mi Calm Calm - N/A Fog Fog
9:19 AM 34.0 °F - 33.1 °F 96% 29.99 in 2.0 mi Calm Calm - N/A   Clear
9:26 AM 36.0 °F - 33.1 °F 89% 29.99 in 7.0 mi Calm Calm - N/A   Clear
9:51 AM 36.0 °F - 33.1 °F 89% 30.00 in 10.0 mi Calm Calm - N/A   Clear
10:51 AM 39.0 °F 35.7 °F 34.0 °F 82% 29.99 in 10.0 mi South 4.6 mph - N/A   Clear
11:51 AM 41.0 °F 37.1 °F 33.1 °F 73% 29.97 in - SE 5.8 mph - N/A   Clear
12:51 PM 42.1 °F 36.6 °F 32.0 °F 67% 29.96 in 10.0 mi South 9.2 mph - N/A   Clear
1:51 PM 44.1 °F 41.5 °F 30.9 °F 60% 29.94 in 10.0 mi SE 4.6 mph - N/A   Clear
2:51 PM 43.0 °F 38.8 °F 32.0 °F 65% 29.94 in 10.0 mi SSE 6.9 mph - N/A   Clear
3:51 PM 42.1 °F 40.2 °F 32.0 °F 67% 29.93 in 10.0 mi SE 3.5 mph - N/A   Clear
4:51 PM 39.9 °F 37.8 °F 30.9 °F 70% 29.94 in 10.0 mi SE 3.5 mph - N/A   Clear
5:51 PM 37.9 °F - 30.9 °F 76% 29.94 in 10.0 mi Calm Calm - N/A   Clear
6:51 PM 32.0 °F - 30.0 °F 92% 29.95 in 9.0 mi Calm Calm - N/A   Clear
7:51 PM 30.0 °F - 28.9 °F 96% 29.94 in 7.0 mi Calm Calm - N/A   Clear
8:51 PM 28.9 °F - 28.0 °F 96% 29.92 in 5.0 mi Calm Calm - N/A   Clear
9:51 PM 27.0 °F - 27.0 °F 100% 29.91 in 3.0 mi Calm Calm - N/A   Clear
9:58 PM 27.0 °F 21.6 °F 26.1 °F 96% 29.89 in 2.5 mi East 4.6 mph - N/A   Clear
10:08 PM 27.0 °F - 26.1 °F 96% 29.89 in 3.0 mi Calm Calm - N/A   Clear
10:36 PM 27.0 °F - 26.1 °F 96% 29.89 in 2.5 mi Calm Calm - N/A   Clear
10:51 PM 27.0 °F - 26.1 °F 96% 29.90 in 2.5 mi Calm Calm - N/A   Clear
11:08 PM 25.0 °F 19.3 °F 24.1 °F 96% 29.89 in 1.5 mi NW 4.6 mph - N/A   Clear
11:15 PM 26.1 °F - 24.1 °F 92% 29.88 in 3.0 mi Calm Calm - N/A   Partly Cloudy
11:51 PM 26.1 °F - 26.1 °F 100% 29.90 in 3.0 mi Calm Calm - N/A   Partly Cloudy